Home > Weather > Hamburg > Past weeks

Flag for Germany Weather for the Past 2 Weeks in Hamburg, Hamburg, Germany

Now
48 °F

Drizzle. Fog.


Feels Like: 43 °F
Forecast: 44 / 51 °F
Wind: 14 mph from Southwest

Location: Hamburg-Fuhlsbuettel

Current Time: Feb 6, 2016 at 1:38:18 AM

Latest Report: Feb 6, 2016 at 12:50 AM


Visibility: 2 mi

Pressure: 30.01 "Hg

Humidity: 94%

Dew point: 46 °F

Location of HamburgLocation

Historic Weather in Hamburg — Graph

°F

Hamburg Temperature Yesterday

Maximum temperature yesterday: 46 °F (at 6:20 PM)
Minimum temperature yesterday: 34 °F (at 12:20 AM)
Average temperature yesterday: 41 °F

High & Low Weather Summary for the Past Weeks

 TemperatureHumidityPressure
High54 °F (Feb 1, 8:20 PM)100% (Jan 22, 12:20 AM)30.45 "Hg (Jan 22, 12:20 AM)
Low19 °F (Jan 22, 12:20 AM)57% (Feb 2, 6:20 PM)29.53 "Hg (Jan 30, 2:20 PM)
Average42 °F88%29.98 "Hg
* Reported Jan 21 11:20 PM — Feb 5 11:50 PM, Hamburg, Weather by CustomWeather, © 2016

Note: Actual official high and low records may vary slightly from our data, if they occured in-between our weather recording intervals... More about our weather records

Advertising

Hamburg Weather History for the Previous 24 Hours

 ConditionsComfort  
Time TempWeatherWind HumidityBarometerVisibility
11:50 PM
Fri, Feb 5
46 °FDrizzle. Fog.10 mph100%30.01 "Hg1 mi
11:20 PM46 °FFog.9 mph100%30.01 "Hg3 mi
10:50 PM46 °FLight rain. Fog.8 mph93%30.04 "Hg3 mi
10:20 PM46 °FLight rain. Passing clouds.7 mph93%30.04 "Hg3 mi
9:50 PM46 °FLight rain. Passing clouds.8 mph93%30.04 "Hg3 mi
9:20 PM46 °FPartly cloudy.9 mph93%30.04 "Hg4 mi
8:50 PM46 °FPartly cloudy.9 mph93%30.04 "Hg4 mi
8:20 PM46 °FPartly cloudy.10 mph93%30.04 "Hg4 mi
7:50 PM46 °FFog.9 mph93%30.04 "Hg3 mi
7:20 PM46 °FPassing clouds.10 mph93%30.04 "Hg4 mi
6:50 PM46 °FPartly cloudy.9 mph93%30.04 "Hg4 mi
6:20 PM46 °FPassing clouds.10 mph93%30.04 "Hg4 mi
5:50 PM45 °FFog.12 mph100%30.04 "Hg3 mi
5:20 PM45 °FFog.12 mph100%30.04 "Hg2 mi
4:50 PM45 °FFog.12 mph93%30.04 "Hg2 mi
4:20 PM43 °FFog.10 mph100%30.04 "Hg2 mi
3:50 PM43 °FDrizzle. Partly sunny.9 mph100%30.04 "Hg2 mi
3:20 PM43 °FDrizzle. Partly sunny.13 mph93%30.04 "Hg2 mi
2:50 PM41 °FDrizzle. Partly sunny.14 mph100%30.07 "Hg3 mi
2:20 PM41 °FPartly sunny.14 mph100%30.07 "Hg4 mi
1:50 PM41 °FDrizzle. Partly sunny.15 mph93%30.07 "Hg3 mi
1:20 PM41 °FDrizzle. Partly sunny.10 mph93%30.09 "Hg3 mi
12:50 PM41 °FLight rain. Partly sunny.10 mph93%30.09 "Hg4 mi
12:20 PM41 °FLight rain. Partly sunny.13 mph93%30.12 "Hg4 mi
11:50 AM39 °FLight rain. Partly sunny.14 mph93%30.12 "Hg4 mi
11:20 AM39 °FLight rain. Broken clouds.13 mph93%30.15 "HgN/A
10:50 AM39 °FLight rain. Partly sunny.15 mph93%30.15 "HgN/A
10:20 AM39 °FLight rain. Scattered clouds.13 mph93%30.15 "HgN/A
9:50 AM39 °FLight rain. Broken clouds.13 mph93%30.15 "HgN/A
9:20 AM39 °FPartly sunny.13 mph93%30.15 "HgN/A
8:50 AM37 °FLight rain. Partly sunny.13 mph93%30.18 "HgN/A
8:20 AM37 °FPartly sunny.10 mph93%30.18 "HgN/A
7:50 AM36 °FPassing clouds.10 mph100%30.18 "HgN/A
7:20 AM36 °FPassing clouds.9 mph100%30.18 "HgN/A
6:20 AM36 °FPassing clouds.9 mph100%30.18 "HgN/A
5:50 AM34 °FPassing clouds.6 mph100%30.18 "HgN/A
5:20 AM34 °FPassing clouds.7 mph100%30.18 "HgN/A
4:50 AM36 °FPassing clouds.3 mph93%30.18 "HgN/A
4:20 AM36 °FPassing clouds.8 mph100%30.18 "HgN/A
3:50 AM36 °FPassing clouds.6 mph100%30.18 "HgN/A
3:20 AM36 °FLight rain. Passing clouds.3 mph100%30.18 "HgN/A
2:50 AM36 °FLight rain. Passing clouds.5 mph100%30.18 "HgN/A
2:20 AM37 °FLight rain. Passing clouds.8 mph87%30.18 "HgN/A
1:50 AM36 °FPassing clouds.8 mph93%30.18 "HgN/A
1:20 AM36 °FPassing clouds.8 mph93%30.18 "HgN/A
Weather by CustomWeather, © 2016

See weather overviewHow to use our weather pages